Effective Sunday, March 17, 2024, the National Weather Service National Data Buoy Center will discontinue its Dial-A-Buoy Interactive Voice Response system. For more information, see Service Change Notice 24-06 (PDF).

Station TXPT2 - 8770822 - Texas Point, Sabine Pass, TX Image indicating link to RSS feed of recent meteorological observations for station TXPT2


Conditions at TXPT2 as of
(9:48 pm CST on 02/23/2024)
0348 GMT on 02/24/2024:
     

Click on the graph icon in the table below to see a time series plot of the last five days of that observation.

5-day plot - Wind Direction Wind Direction (WDIR): NW ( 310 deg true )
5-day plot - Wind Speed Wind Speed (WSPD): 9.9 kts
5-day plot - Wind Gust Wind Gust (GST): 11.1 kts
5-day plot - Atmospheric Pressure Atmospheric Pressure (PRES):30.02 in
5-day plot - Water Temperature Water Temperature (WTMP): 62.2 °F
5-day plot - Wind Speed at 10 Meters Wind Speed at 10 meters (WSPD10M): 9.7 kts
5-day plot - Wind Speed at 20 Meters Wind Speed at 20 meters (WSPD20M): 9.7 kts
5-day plot -  Wind Speed, Wind Gust and Atmospheric Pressure Combined plot of Wind Speed, Gust, and Air Pressure
NOS Water Level Observation Network Water Level
Previous observations
TIME
(CST)
5-day plot - Wind Direction
WDIR
 
5-day plot - Wind Speed
WSPD
kts
5-day plot - Wind Gust
GST
kts
5-day plot - Wave Height
WVHT
ft
5-day plot - Dominant Wave Period
DPD
sec
5-day plot - Average Wave Period
APD
sec
5-day plot - Mean Wave Direction
MWD
 
5-day plot - Atmospheric Pressure
PRES
in
5-day plot - Pressure Tendency
PTDY
in
5-day plot - Air Temperature
ATMP
°F
5-day plot - Water Temperature
WTMP
°F
5-day plot - Dew Point
DEWP
°F
5-day plot - Salinity
SAL
psu
5-day plot - Visibility
VIS
nmi
5-day plot - Tide (above MLLW)
TIDE
ft
2024-02-23 09:42 pm NW 9.9 11.1----30.02-- 62.2----
2024-02-23 09:36 pm NW 9.9 11.1----30.02-- 62.2----
2024-02-23 09:30 pm NW 9.9 9.9----30.01- 64.0 62.2----
2024-02-23 09:24 pm NW 8.9 9.9----30.01- 63.0 62.2----
2024-02-23 09:18 pmWNW 8.9 9.9----30.01- 62.4 62.2----
2024-02-23 09:12 pmWNW 8.0 9.9----30.01- 62.1 62.2----
2024-02-23 09:06 pmWNW 8.9 9.9----30.01- 63.1 62.2----
2024-02-23 09:00 pmWNW 8.9 9.9----30.00+0.07 63.7 62.2----
2024-02-23 08:54 pm W 8.9 9.9----30.00- 63.9 62.2----
2024-02-23 08:48 pmNNW 8.9 11.1----30.00- 68.4 62.2----
2024-02-23 08:42 pmNNW 9.9 13.0----30.00- 68.4 62.2----
2024-02-23 08:36 pmNNW 12.0 13.0----30.00- 69.8 62.2----
2024-02-23 08:30 pmNNW 8.9 11.1----30.00- 68.2 62.2----
2024-02-23 08:24 pmNNW 8.9 11.1----29.99- 68.4 62.2----
2024-02-23 08:18 pmNNW 8.9 9.9----29.99- 68.0 62.2----
2024-02-23 08:12 pm NW 8.9 9.9----29.99- 66.6 62.2----
2024-02-23 08:06 pm NW 9.9 11.1----29.98- 66.6 62.2----
2024-02-23 08:00 pmWNW 7.0 8.9----29.98+0.07 64.9 62.2----
2024-02-23 07:54 pm NW 8.9 9.9----29.98- 67.5 62.2----
2024-02-23 07:48 pm NW 8.9 11.1----29.98- 68.2 62.4----
2024-02-23 07:42 pm NW 8.9 12.0----29.97- 68.9 62.4----
2024-02-23 07:36 pm NW 8.0 11.1----29.97- 69.1 62.4----
2024-02-23 07:30 pm NW 7.0 11.1----29.96-------
2024-02-23 07:24 pmNNW 7.0 9.9----29.96-------
2024-02-23 07:18 pmNNW 8.0 12.0----29.96-- 62.4----
2024-02-23 07:12 pmNNW 8.9 11.1----29.96-- 62.4----
2024-02-23 07:06 pm NW 8.9 8.9----29.96-- 62.4----
2024-02-23 07:00 pm NW 8.9 9.9----29.96+0.06- 62.4----
2024-02-23 06:54 pmNNW 8.0 12.0----29.95-- 62.4----
2024-02-23 06:48 pm NW 9.9 11.1----29.95-- 62.4----
2024-02-23 06:42 pm NW 8.0 9.9----29.94-- 62.4----
2024-02-23 06:36 pmNNW 7.0 8.0----29.94-- 62.4----
2024-02-23 06:30 pmNNW 5.1 8.9----29.94-- 62.6----
2024-02-23 06:24 pm NW 7.0 8.9----29.94-- 62.6----
2024-02-23 06:18 pmNNW 7.0 8.0----29.93-- 62.6----
2024-02-23 06:12 pmNNW 7.0 8.0----29.93-- 62.6----
2024-02-23 06:06 pmNNW 8.0 9.9----29.93-- 62.6----
2024-02-23 06:00 pmNNW 9.9 12.0----29.93+0.04------
2024-02-23 05:54 pmNNW 11.1 12.0----29.92-------
2024-02-23 05:48 pmNNW 11.1 12.0----29.92- 71.6 62.6----
2024-02-23 05:42 pmNNW 8.9 12.0----29.91- 71.8 62.6----
2024-02-23 05:36 pmNNW 9.9 11.1----29.91- 72.3 62.6----
2024-02-23 05:30 pmNNW 8.9 12.0----29.91- 72.5 62.8----
2024-02-23 05:24 pm NW 9.9 13.0----29.91- 72.3 62.8----
2024-02-23 05:18 pm NW 11.1 12.0----29.91-- 62.8----
2024-02-23 05:12 pmNNW 8.9 11.1----29.91-- 62.8----
2024-02-23 05:06 pmNNW 12.0 14.0----29.90-- 62.8----
2024-02-23 05:00 pm N 8.9 13.0----29.91+0.00 71.6 62.8----
2024-02-23 04:54 pm N 11.1 15.0----29.91- 72.5 62.8----
2024-02-23 04:48 pm N 14.0 15.9----29.91- 73.0 62.8----
2024-02-23 04:42 pm N 13.0 17.1----29.90- 73.2 62.8----
2024-02-23 04:36 pm N 14.0 17.1----29.90- 73.2 62.8----
2024-02-23 04:30 pm N 15.0 17.1----29.90- 73.0 62.8----
2024-02-23 04:24 pm N 15.0 17.1----29.90- 72.9 62.8----
2024-02-23 04:18 pm N 15.0 20.0----29.89- 72.9 62.8----
2024-02-23 04:12 pm N 14.0 18.1----29.89- 73.4 62.8----
2024-02-23 04:06 pm N 14.0 19.0----29.89- 72.7 62.8----
2024-02-23 04:00 pm N 14.0 19.0----29.89-0.03 72.5 62.8----
2024-02-23 03:54 pm N 15.0 21.0----29.89- 72.7 62.8----
2024-02-23 03:48 pm N 15.9 19.0----29.88- 72.9 62.8----
2024-02-23 03:42 pm N 15.0 19.0----29.89- 72.7 62.6----
2024-02-23 03:36 pm N 15.0 19.0----29.89- 72.9 62.6----
2024-02-23 03:30 pmNNW 17.1 21.0----29.89- 72.7 62.6----
2024-02-23 03:24 pm N 20.0 22.9----29.89- 72.9 62.6----
2024-02-23 03:18 pm N 15.9 22.0----29.89- 72.7 62.6----
2024-02-23 03:12 pm N 20.0 22.9----29.88- 72.7 62.6----
2024-02-23 03:06 pm N 19.0 22.0----29.89- 72.9 62.4----
2024-02-23 03:00 pm N 19.0 22.0----29.89-0.05 72.7 62.4----
2024-02-23 02:54 pmNNW 19.0 22.0----29.89- 72.5 62.4----
2024-02-23 02:48 pmNNW 19.0 22.0----29.89- 72.1 62.4----
2024-02-23 02:42 pm N 15.9 20.0----29.89- 71.8 62.4----
2024-02-23 02:36 pm N 19.0 22.0----29.89- 72.0 62.2----
2024-02-23 02:30 pm N 19.0 22.0----29.89- 71.6 62.2----
2024-02-23 02:24 pm N 15.0 18.1----29.90- 71.8 62.2----
2024-02-23 02:18 pmNNW 15.0 22.0----29.90- 71.4 62.2----
2024-02-23 02:12 pmNNW 13.0 15.9----29.90- 71.1 62.2----
2024-02-23 02:06 pmNNW 14.0 21.0----29.90- 70.7 62.2----
2024-02-23 02:00 pmNNW 15.0 21.0----29.90-0.05 70.0 62.2----
2024-02-23 01:54 pm N 15.9 24.1----29.90- 70.9 62.2----
2024-02-23 01:48 pmNNW 19.0 21.0----29.90- 70.9 62.2----
2024-02-23 01:42 pm N 17.1 20.0----29.90- 71.1 62.2----
2024-02-23 01:36 pm N 15.0 19.0----29.91- 70.7 62.2----
2024-02-23 01:30 pmNNW 15.0 21.0----29.91- 70.2 62.1----
2024-02-23 01:24 pmNNW 17.1 21.0----29.91- 70.9 62.1----
2024-02-23 01:18 pmNNW 17.1 22.9----29.91-- 62.1----
2024-02-23 01:12 pmNNW 20.0 24.1----29.92- 70.7 62.1----
2024-02-23 01:06 pm N 15.0 20.0----29.92- 70.3 62.1----
2024-02-23 01:00 pm N 15.9 20.0----29.92-0.01 70.3 61.9----
2024-02-23 12:54 pm N 9.9 21.0----29.93- 70.2 61.9----
2024-02-23 12:48 pm N 18.1 22.0----29.93- 70.2 61.9----
2024-02-23 12:42 pmNNW 18.1 21.0----29.93- 70.0 61.9----
2024-02-23 12:36 pmNNW 15.0 22.9----29.93- 70.0 61.9----
2024-02-23 12:30 pm N 15.0 22.0----29.93- 70.0 61.7----
2024-02-23 12:24 pm N 15.0 20.0----29.93- 69.6 61.7----
2024-02-23 12:18 pm N 18.1 24.1----29.93- 69.8 61.5----
2024-02-23 12:12 pm N 17.1 22.0----29.93- 69.4 61.5----
2024-02-23 12:06 pm N 19.0 22.9----29.94- 69.4 61.5----
2024-02-23 12:00 pm N 18.1 22.0----29.94+0.01 69.3 61.2----
2024-02-23 11:54 am N 18.1 21.0----29.94- 69.1 61.2----
2024-02-23 11:48 am N 15.0 19.0----29.94- 68.4 61.2----
2024-02-23 11:42 am N 15.9 21.0----29.94- 68.5 61.0----
2024-02-23 11:36 am N 17.1 20.0----29.94- 68.5 61.0----
2024-02-23 11:30 am N 18.1 21.0----29.94- 68.2 60.8----
2024-02-23 11:24 am N 18.1 22.0----29.94- 67.8 60.8----
2024-02-23 11:18 am N 18.1 20.0----29.95- 67.6 60.8----
2024-02-23 11:12 am N 18.1 21.0----29.95- 67.3 60.8----
2024-02-23 11:06 am N 15.9 19.0----29.94- 66.9 60.6----
2024-02-23 11:00 am N 15.9 21.0----29.95+0.05 66.6 60.6----
2024-02-23 10:54 am N 18.1 22.0----29.94- 66.6 60.6----
2024-02-23 10:48 am N 20.0 22.0----29.94- 66.2 60.6----
2024-02-23 10:42 am N 20.0 22.9----29.94- 66.0 60.6----
2024-02-23 10:36 am N 18.1 22.0----29.94- 65.7 60.6----
2024-02-23 10:30 am N 19.0 22.0----29.94- 65.8 60.6----
2024-02-23 10:24 am N 20.0 22.0----29.94- 65.5 60.6----
2024-02-23 10:18 am N 19.0 22.0----29.94- 65.1 60.6----
2024-02-23 10:12 am N 20.0 22.9----29.94- 64.9 60.6----
2024-02-23 10:06 am N 19.0 22.0----29.93- 64.9 60.6----
2024-02-23 10:00 am N 18.1 22.0----29.93+0.07 64.4 60.6----
2024-02-23 09:54 am N 19.0 22.9----29.93- 64.2 60.6----
2024-02-23 09:48 am N 19.0 22.9----29.93- 64.2 60.6----
2024-02-23 09:42 am N 19.0 22.0----29.93- 64.0 60.6----
2024-02-23 09:36 am N 17.1 24.1----29.93- 64.0 60.6----
2024-02-23 09:30 am N 18.1 24.1----29.93- 63.7 60.6----
2024-02-23 09:24 am N 19.0 22.9----29.93- 63.5 60.6----
2024-02-23 09:18 am N 22.0 26.0----29.93- 63.5 60.6----
2024-02-23 09:12 am N 19.0 25.1----29.92- 63.3 60.6----
2024-02-23 09:06 am N 21.0 22.9----29.92- 63.1 60.6----
2024-02-23 09:00 am N 21.0 24.1----29.92+0.09 63.0 60.6----
2024-02-23 08:54 am N 18.1 22.0----29.92- 62.8 60.6----
2024-02-23 08:48 am N 19.0 22.0----29.92- 62.8 60.6----
2024-02-23 08:42 am N 18.1 22.0----29.91- 62.8 60.6----
2024-02-23 08:36 am N 19.0 22.0----29.91- 62.8 60.6----
2024-02-23 08:30 am N 17.1 21.0----29.91- 62.6 60.6----
2024-02-23 08:24 am N 18.1 21.0----29.91- 62.6 60.6----
2024-02-23 08:18 am N 15.0 18.1----29.91- 62.4 60.6----
2024-02-23 08:12 am N 14.0 18.1----29.90- 62.2 60.6----
2024-02-23 08:06 am N 14.0 17.1----29.90- 61.9 60.6----
2024-02-23 08:00 am N 13.0 15.9----29.89+0.09 61.5 60.6----
2024-02-23 07:54 amNNW 14.0 17.1----29.89- 61.3 60.6----
2024-02-23 07:48 amNNW 15.9 18.1----29.89- 61.3 60.6----
2024-02-23 07:42 amNNW 14.0 17.1----29.88- 61.0 60.6----
2024-02-23 07:36 amNNW 15.0 17.1----29.88- 61.0 60.6----
2024-02-23 07:30 amNNW 14.0 18.1----29.88- 60.8 60.6----
2024-02-23 07:24 amNNW 15.0 17.1----29.88- 61.0 60.6----
2024-02-23 07:18 amNNW 15.9 19.0----29.87- 61.2 60.6----
2024-02-23 07:12 amNNW 17.1 20.0----29.87- 61.7 60.6----
2024-02-23 07:06 amNNW 15.0 21.0----29.87- 61.9 60.6----
2024-02-23 07:00 amNNW 17.1 20.0----29.86+0.07 62.4 60.6----
2024-02-23 06:54 amNNW 18.1 19.0----29.86- 62.6 60.6----
2024-02-23 06:48 amNNW 17.1 20.0----29.86- 62.6 60.6----
2024-02-23 06:42 amNNW 19.0 22.0----29.86- 63.0 60.6----
2024-02-23 06:36 amNNW 18.1 21.0----29.85- 63.1 60.6----
2024-02-23 06:30 amNNW 17.1 19.0----29.85- 63.0 60.6----
2024-02-23 06:24 amNNW 17.1 20.0----29.85- 63.1 60.6----
2024-02-23 06:18 amNNW 17.1 22.0----29.84- 63.3 60.6----
2024-02-23 06:12 amNNW 15.9 19.0----29.84- 63.1 60.6----
2024-02-23 06:06 amNNW 17.1 20.0----29.83- 63.3 60.6----
2024-02-23 06:00 amNNW 15.9 20.0----29.83+0.04 63.1 60.6----
2024-02-23 05:54 amNNW 17.1 20.0----29.83- 63.3 60.6----
2024-02-23 05:48 amNNW 17.1 20.0----29.83- 63.5 60.6----
2024-02-23 05:42 amNNW 18.1 21.0----29.82- 63.9 60.8----
2024-02-23 05:36 amNNW 19.0 22.9----29.82- 64.2 60.8----
2024-02-23 05:30 amNNW 15.9 19.0----29.82- 63.9 60.8----
2024-02-23 05:24 am NW 12.0 15.9----29.82- 61.9 60.8----
2024-02-23 05:18 am NW 12.0 15.0----29.81- 61.2 60.8----
2024-02-23 05:12 am NW 11.1 13.0----29.81- 60.3 60.8----
2024-02-23 05:06 am NW 11.1 13.0----29.81- 60.4 60.8----
2024-02-23 05:00 am NW 9.9 13.0----29.81+0.01 60.1 60.8----
2024-02-23 04:54 am NW 9.9 14.0----29.81- 59.5 60.8----
2024-02-23 04:48 am NW 11.1 12.0----29.81- 59.5 60.8----
2024-02-23 04:42 amWNW 9.9 12.0----29.81- 59.5 60.8----
2024-02-23 04:36 amWNW 9.9 12.0----29.81- 59.7 60.8----
2024-02-23 04:30 amWNW 11.1 12.0----29.80- 59.7 60.8----
2024-02-23 04:24 amWNW 9.9 12.0----29.80- 59.9 61.0----
2024-02-23 04:18 amWNW 8.9 12.0----29.80- 59.9 61.0----
2024-02-23 04:12 amWNW 9.9 12.0----29.80- 59.9 61.0----
2024-02-23 04:06 amWNW 9.9 12.0----29.79- 59.9 61.0----
2024-02-23 04:00 amWNW 9.9 12.0----29.79+0.00 59.9 61.0----
2024-02-23 03:54 amWNW 8.9 12.0----29.79- 60.1 61.0----
2024-02-23 03:48 amWNW 8.9 11.1----29.79- 60.1 61.0----
2024-02-23 03:42 am W 8.9 11.1----29.79- 60.3 61.0----
2024-02-23 03:36 am W 8.0 9.9----29.79- 60.4 61.0----
2024-02-23 03:30 am W 8.0 9.9----29.79- 60.4 61.0----
2024-02-23 03:24 am W 8.0 9.9----29.79- 60.8 61.0----
2024-02-23 03:18 am W 8.0 8.9----29.79- 60.8 61.0----
2024-02-23 03:12 am W 8.0 9.9----29.79- 61.0 61.0----
2024-02-23 03:06 am W 8.0 9.9----29.79- 61.0 61.0----
2024-02-23 03:00 am W 8.9 11.1----29.79+0.00 61.2 61.2----
2024-02-23 02:54 am W 9.9 13.0----29.79- 61.3 61.2----
2024-02-23 02:48 am W 9.9 11.1----29.79- 61.3 61.2----
2024-02-23 02:42 am W 8.9 11.1----29.79- 61.5 61.2----
2024-02-23 02:36 am W 8.9 12.0----29.79- 61.7 61.2----
2024-02-23 02:30 am W 8.0 11.1----29.79- 61.7 61.2----
2024-02-23 02:24 am W 8.9 12.0----29.79- 61.9 61.2----
2024-02-23 02:18 am W 8.9 13.0----29.79- 62.1 61.2----
2024-02-23 02:12 am W 8.9 12.0----29.79- 62.2 61.2----
2024-02-23 02:06 am W 9.9 13.0----29.79- 62.2 61.2----
2024-02-23 02:00 am W 9.9 12.0----29.79+0.00 62.4 61.2----
2024-02-23 01:54 am W 9.9 13.0----29.79- 62.6 61.2----
2024-02-23 01:48 am W 12.0 13.0----29.79- 62.8 61.2----
2024-02-23 01:42 am W 11.1 13.0----29.79- 62.8 61.2----
2024-02-23 01:36 am W 9.9 13.0----29.79- 62.8 61.2----
2024-02-23 01:30 am W 11.1 13.0----29.80- 62.8 61.3----
2024-02-23 01:24 am W 9.9 12.0----29.80- 62.8 61.3----
2024-02-23 01:18 am W 9.9 12.0----29.80- 62.8 61.3----
2024-02-23 01:12 am W 8.9 11.1----29.80- 62.8 61.3----
2024-02-23 01:06 am W 8.9 11.1----29.80- 62.4 61.3----
2024-02-23 01:00 am W 8.9 12.0----29.80+0.00 62.2 61.3----
2024-02-23 12:54 am W 9.9 14.0----29.80- 62.1 61.3----
2024-02-23 12:48 am W 11.1 12.0----29.79-- 61.3----
2024-02-23 12:42 am W 9.9 13.0----29.79- 62.2 61.3----
2024-02-23 12:36 am W 12.0 15.9----29.79- 62.4 61.3----
2024-02-23 12:30 am W 11.1 15.9----29.79- 62.2 61.3----
2024-02-23 12:24 am W 12.0 18.1----29.79- 62.4 61.3----
2024-02-23 12:18 amWSW 14.0 17.1----29.78- 62.2 61.3----
2024-02-23 12:12 amWSW 12.0 15.9----29.78- 62.2 61.5----
2024-02-23 12:06 am W 13.0 17.1----29.79- 62.2 61.5----
2024-02-23 12:00 amWSW 12.0 15.9----29.79+0.00 62.4 61.5----
2024-02-22 11:54 pmWSW 9.9 14.0----29.79- 62.4 61.5----
2024-02-22 11:48 pmWSW 9.9 14.0----29.79- 62.4 61.5----
2024-02-22 11:42 pmWSW 11.1 14.0----29.79- 62.4 61.5----
2024-02-22 11:36 pmWSW 9.9 13.0----29.79- 62.4 61.5----
2024-02-22 11:30 pmWSW 9.9 13.0----29.79- 62.2 61.5----
2024-02-22 11:24 pm SW 11.1 14.0----29.79- 62.4 61.5----
2024-02-22 11:18 pm SW 8.9 12.0----29.79- 62.4 61.5----
2024-02-22 11:12 pm SW 8.9 12.0----29.79- 62.6 61.5----
2024-02-22 11:06 pm SW 11.1 13.0----29.79- 62.8 61.5----
2024-02-22 11:00 pm SW 8.9 12.0----29.79+0.00 62.6 61.5----
2024-02-22 10:54 pm SW 8.9 12.0----29.79- 62.6 61.5----
2024-02-22 10:48 pm SW 8.9 12.0----29.80- 62.6 61.5----
2024-02-22 10:42 pm SW 8.9 11.1----29.79- 62.6 61.5----
2024-02-22 10:36 pm SW 8.9 11.1----29.79- 62.6 61.5----
2024-02-22 10:30 pm SW 8.9 12.0----29.79- 62.6 61.5----
2024-02-22 10:24 pm SW 8.9 12.0----29.80- 62.6 61.5----
2024-02-22 10:18 pm SW 9.9 12.0----29.80- 62.6 61.5----
2024-02-22 10:12 pm SW 9.9 12.0----29.80- 62.6 61.5----
2024-02-22 10:06 pm SW 9.9 12.0----29.79- 62.8 61.5----
2024-02-22 10:00 pm SW 9.9 12.0----29.79+0.03 62.6 61.5----
2024-02-22 09:54 pm SW 9.9 12.0----29.79- 62.6 61.5----